DateTimeUTC,F1_A11,F1_S11,BsB_S11,BsG_S11,BsR_S11,BbsB_S11,BbsG_S11,BbsR_S11,BaB_A11,BaG_A11,BaR_A11,Tu_S11,T_S11,Uu_S11,U_S11,P_S11,T1_A11
2021-04-17T08:00:00Z,00040200,21000000,,,,,,,-000.27,-000.41,-000.38,17.2,24.7,,00.0,0647.9,31.0
2021-04-17T08:01:00Z,00040200,21000000,,,,,,,-000.04,0000.51,-000.01,17.2,24.7,,00.0,0647.9,31.0
2021-04-17T08:02:00Z,00040200,21000000,,,,,,,0000.49,-000.07,0000.61,17.1,24.7,,00.0,0647.9,31.0
2021-04-17T08:03:00Z,00040200,61000000,,,,,,,-000.12,-000.21,-000.11,17.1,24.7,,00.0,0647.9,31.0
2021-04-17T08:04:00Z,00040200,41000000,0001.05,0000.64,0000.57,0000.21,0000.24,0000.17,0000.58,0000.87,0000.61,17.1,24.4,,00.0,0648.8,31.0
2021-04-17T08:05:00Z,00040200,01000000,0001.92,0000.66,0000.47,0000.41,0000.27,0000.07,0000.35,0000.57,0000.60,17.2,24.3,,00.0,0649.0,31.0
2021-04-17T08:06:00Z,00040200,01000000,0001.08,0000.73,0000.48,-000.10,0000.08,-000.04,0000.35,0000.34,0000.23,17.3,24.3,,00.0,0648.9,31.0
2021-04-17T08:07:00Z,00040200,01000000,0000.97,0000.52,0000.61,-000.13,0000.18,0000.04,0000.98,0000.48,0000.20,17.3,24.3,,00.0,0649.0,31.1
2021-04-17T08:08:00Z,00040200,01000000,0001.01,0000.57,0000.51,-000.12,0000.29,0000.03,-000.04,0000.71,0000.29,17.4,24.4,,00.0,0649.0,31.1
2021-04-17T08:09:00Z,00040200,01000000,0000.74,0000.51,0000.68,0000.17,-000.03,-000.16,0000.55,0000.68,0000.22,17.5,24.4,,00.0,0649.0,31.1
2021-04-17T08:10:00Z,00040200,01000000,0001.89,0000.56,0000.44,-000.07,0000.11,0000.15,0000.56,-000.08,0000.36,17.5,24.4,,00.0,0649.0,31.1
2021-04-17T08:11:00Z,00040200,01000000,0001.69,0000.85,0000.63,0000.29,-000.01,0000.15,-000.06,0000.31,0000.07,17.6,24.5,,00.0,0649.0,31.1
2021-04-17T08:12:00Z,00040200,01000000,0001.16,0000.39,0000.38,0000.35,0000.18,-000.10,0000.31,0000.31,0000.41,17.7,24.5,,00.0,0649.0,31.2
2021-04-17T08:13:00Z,00040200,01000000,0001.09,0000.73,0000.41,-000.32,-000.11,-000.05,0000.18,-000.43,-000.02,17.7,24.5,,00.0,0649.0,31.1
2021-04-17T08:14:00Z,00040200,01000000,0001.06,0000.82,0000.38,0000.12,0000.16,-000.09,-000.14,-000.01,-000.35,17.8,24.6,,00.0,0649.0,31.1
2021-04-17T08:15:00Z,00040200,01000000,0001.47,0000.96,0000.52,0000.42,0000.18,-000.11,0000.13,0000.18,0000.45,17.8,24.6,,00.0,0649.0,31.1
2021-04-17T08:16:00Z,00040200,01000000,0001.43,0000.76,0000.59,0000.05,0000.06,0000.22,0000.21,-000.20,-000.13,17.8,24.5,,00.0,0648.9,31.1
2021-04-17T08:17:00Z,00040200,01000000,0000.82,0000.87,0000.24,0000.34,-000.01,0000.17,0000.00,0000.69,-000.01,17.7,24.5,,00.0,0648.9,31.1
2021-04-17T08:18:00Z,00040200,01000000,0001.83,0000.64,0000.83,0000.09,0000.25,0000.21,0000.48,-000.53,0000.27,17.6,24.5,,00.0,0648.9,31.0
2021-04-17T08:19:00Z,00040200,01000000,0001.60,0000.71,0000.44,0000.19,0000.08,-000.10,0000.40,0000.60,0000.65,17.6,24.5,,00.0,0648.9,31.0
2021-04-17T08:20:00Z,00040200,01000000,0001.53,0000.73,0000.77,0000.32,0000.01,0000.02,0000.39,0000.47,0000.12,17.6,24.5,,00.0,0648.9,31.0
2021-04-17T08:21:00Z,00040200,01000000,0001.46,0000.65,0000.73,0000.18,-000.06,0000.20,-000.17,-000.33,-000.23,17.6,24.5,,00.0,0648.9,31.0
2021-04-17T08:22:00Z,00040200,01000000,0001.25,0000.70,0000.54,-000.60,0000.28,0000.22,0000.20,0000.34,0000.27,17.6,24.5,,00.0,0649.0,31.0
2021-04-17T08:23:00Z,00040200,01000000,0001.46,0000.60,0000.34,0000.04,0000.01,0000.09,0000.18,0000.16,-000.13,17.6,24.4,,00.0,0648.9,31.0
2021-04-17T08:24:00Z,00040200,01000000,0001.32,0000.83,0000.32,0000.42,0000.14,0000.07,0000.67,0000.26,0000.41,17.5,24.4,,00.0,0648.9,31.0
2021-04-17T08:25:00Z,00040200,01000000,0001.14,0000.52,0000.47,0000.81,0000.03,-000.04,-000.12,0000.06,-000.26,17.4,24.4,,00.0,0648.9,31.0
2021-04-17T08:26:00Z,00040200,01000000,0001.21,0000.72,0000.73,0000.18,0000.12,-000.12,0000.32,0000.46,0000.46,17.4,24.4,,00.0,0648.9,31.0
2021-04-17T08:27:00Z,00040200,01000000,0000.78,0000.66,0000.64,0000.37,-000.12,0000.03,0000.24,0000.09,0000.34,17.3,24.4,,00.0,0648.9,31.0
2021-04-17T08:28:00Z,00040200,01000000,0001.07,0000.74,0000.59,-000.16,0000.16,0000.07,0000.05,0000.48,0000.25,17.3,24.3,,00.0,0648.9,31.0
2021-04-17T08:29:00Z,00040200,01000000,0001.16,0000.62,0000.56,0000.34,-000.15,-000.07,0000.35,0000.10,0000.05,17.2,24.3,,00.0,0648.9,31.0
2021-04-17T08:30:00Z,00040200,01000000,0001.40,0000.63,0000.54,0000.01,0000.07,-000.18,0000.31,0000.73,0000.46,17.2,24.3,,00.0,0648.9,30.9
2021-04-17T08:31:00Z,00040200,01000000,0001.27,0000.91,0000.70,-000.11,0000.11,0000.17,0000.37,-000.25,0000.21,17.1,24.2,,00.0,0648.9,30.9
2021-04-17T08:32:00Z,00040200,01000000,0001.62,0000.85,0000.84,0000.27,0000.15,-000.09,0000.13,0000.51,-000.03,17.0,24.2,,00.0,0648.9,30.9
2021-04-17T08:33:00Z,00040200,01000000,0001.25,0000.61,0000.57,-000.11,0000.12,0000.01,0000.42,-000.59,0000.05,17.0,24.2,,00.0,0648.9,30.9
2021-04-17T08:34:00Z,00040200,01000000,0001.06,0000.62,0000.61,0000.20,0000.13,-000.18,0000.47,0000.60,0000.62,17.0,24.1,,00.0,0648.9,30.9
2021-04-17T08:35:00Z,00040200,01000000,0000.84,0000.69,0000.85,0000.26,0000.17,-000.01,0000.51,0000.60,0000.35,17.0,24.1,,00.0,0648.9,30.9
2021-04-17T08:36:00Z,00040200,01000000,0000.73,0000.51,0000.63,0000.24,-000.02,-000.02,0000.12,0000.64,0000.14,17.1,24.2,,00.0,0648.8,31.0
2021-04-17T08:37:00Z,00040200,01000000,0000.70,0000.73,0000.81,0000.60,-000.05,0000.09,0000.72,0000.07,0000.60,17.1,24.2,,00.0,0648.9,31.0
2021-04-17T08:38:00Z,00040200,01000000,0001.10,0000.76,0000.63,0000.56,0000.25,0000.13,0000.67,0000.95,0000.19,17.2,24.2,,00.0,0648.9,31.0
2021-04-17T08:39:00Z,00040200,01000000,0000.85,0000.91,0000.57,0000.68,0000.16,-000.04,-000.17,-000.26,0000.07,17.3,24.2,,00.0,0648.9,31.0
2021-04-17T08:40:00Z,00040200,01000000,0001.16,0000.89,0000.84,0000.02,0000.04,-000.03,0000.37,0000.79,0000.60,17.3,24.3,,00.0,0648.9,31.0
2021-04-17T08:41:00Z,00040200,01000000,0001.40,0000.70,0000.50,-000.04,0000.06,-000.03,-000.25,-000.31,-000.40,17.4,24.3,,00.0,0648.9,31.0
2021-04-17T08:42:00Z,00040200,01000000,0001.37,0000.44,0000.19,0000.11,0000.05,-000.18,0000.92,0000.72,0000.72,17.4,24.3,,00.0,0648.9,31.0
2021-04-17T08:43:00Z,00040200,01000000,0001.51,0000.64,0000.61,0000.14,0000.12,0000.05,0000.47,0000.25,0000.39,17.4,24.3,,00.0,0648.9,31.0
2021-04-17T08:44:00Z,00040200,01000000,0001.69,0000.83,0000.56,-000.01,0000.14,0000.08,-000.18,-000.26,0000.04,17.4,24.3,,00.0,0648.9,31.0
2021-04-17T08:45:00Z,00040200,01000000,0001.94,0000.54,0000.30,0000.79,-000.01,-000.19,0000.42,0000.58,-000.15,17.3,24.3,,00.0,0648.9,31.0
2021-04-17T08:46:00Z,00040200,01000000,0001.03,0000.78,0000.50,0000.49,0000.25,-000.16,0000.77,0000.48,0000.56,17.2,24.3,,00.0,0648.9,31.0
2021-04-17T08:47:00Z,00040200,01000000,0001.29,0000.71,0000.39,0000.01,0000.19,-000.08,-000.06,0000.46,0000.49,17.2,24.3,,00.0,0648.8,31.0
2021-04-17T08:48:00Z,00040200,01000000,0001.48,0000.49,0000.46,-000.04,0000.07,0000.17,-000.03,-000.40,-000.19,17.1,24.2,,00.0,0648.9,31.0
2021-04-17T08:49:00Z,00040200,01000000,0001.08,0000.41,0000.37,0000.24,-000.10,-000.23,0000.97,0000.84,0000.22,17.1,24.2,,00.0,0648.9,31.0
2021-04-17T08:50:00Z,00040200,01000000,0001.77,0000.91,0000.71,0000.17,0000.08,0000.10,0000.29,0000.51,0000.50,17.2,24.2,,00.0,0648.8,30.9
2021-04-17T08:51:00Z,00040200,01000000,0001.23,0000.62,0000.34,0000.21,0000.13,-000.12,0000.36,0000.40,0000.43,17.2,24.2,,00.0,0648.8,31.0
2021-04-17T08:52:00Z,00040200,01000000,0001.96,0000.80,0000.49,0000.20,-000.01,-000.11,0000.20,0000.05,0000.14,17.3,24.2,,00.0,0648.8,31.0
2021-04-17T08:53:00Z,00040200,01000000,0001.86,0000.68,0000.28,-000.03,0000.17,0000.01,0000.17,0000.35,0000.02,17.3,24.3,,00.0,0648.8,31.0
2021-04-17T08:54:00Z,00040200,01000000,0001.36,0000.78,0000.50,0000.31,0000.17,-000.01,0000.32,0000.11,0000.34,17.4,24.3,,00.0,0648.8,31.1
2021-04-17T08:55:00Z,00040200,01000000,0001.10,0000.65,0000.77,0000.12,-000.01,-000.05,0000.47,0000.10,0000.10,17.4,24.3,,00.0,0648.8,31.0
2021-04-17T08:56:00Z,00040200,01000000,0001.39,0000.59,0000.46,0000.29,0000.17,-000.37,0000.01,0000.66,0000.20,17.5,24.3,,00.0,0648.8,31.0
2021-04-17T08:57:00Z,00040200,41000000,,,,,,,0000.28,0000.24,0000.33,17.5,24.4,,00.0,0648.8,31.0
2021-04-17T08:58:00Z,00040200,61000000,,,,,,,0000.01,-000.24,-000.18,17.1,24.5,,00.0,0647.9,31.0
2021-04-17T08:59:00Z,00040200,21000000,,,,,,,-000.03,-000.04,-000.14,17.1,24.6,,00.0,0647.8,31.0
